| time (UTC) | temp F | wind direction | speed knots | gust knots | rain 1hr in | rain 24hr in | rain mn in | humidity % | barometer mb |
| 20260507134548 | 55 | 286 | 1.7 | 2.6 | 0.00 | 0.14 | 0.14 | 69 | 1005.1 |
| 20260507134318 | 59 | 43 | 0.9 | 3.5 | 0.00 | 0.63 | 0.15 | 73 | 1007.2 |
| 20260507134043 | 54 | 34 | 1.7 | 2.6 | 0.00 | 0.14 | 0.14 | 74 | 1005.2 |
| 20260507133540 | 55 | 307 | 0.9 | 1.7 | 0.00 | 0.14 | 0.14 | 71 | 1005.3 |
| 20260507133314 | 59 | 208 | 1.7 | 3.5 | 0.00 | 0.63 | 0.15 | 75 | 1007.2 |
| 20260507133038 | 55 | 326 | 1.7 | 1.7 | 0.00 | 0.14 | 0.14 | 73 | 1005.2 |
| 20260507132534 | 55 | 343 | 1.7 | 2.6 | 0.00 | 0.14 | 0.14 | 72 | 1005.2 |
| 20260507132031 | 55 | 223 | 5.2 | 5.2 | 0.00 | 0.14 | 0.14 | 74 | 1005.2 |
| 20260507131527 | 54 | 37 | 2.6 | 2.6 | 0.00 | 0.14 | 0.14 | 74 | 1005.3 |
| 20260507131315 | 59 | 209 | 1.7 | 5.2 | 0.00 | 0.63 | 0.15 | 78 | 1007.5 |
| 20260507131025 | 54 | 333 | 1.7 | 2.6 | 0.00 | 0.14 | 0.14 | 74 | 1005.4 |
| 20260507130522 | 53 | 333 | 0.0 | 1.7 | 0.00 | 0.14 | 0.14 | 76 | 1005.3 |
| 20260507130315 | 58 | 315 | 0.9 | 1.7 | 0.00 | 0.63 | 0.15 | 80 | 1007.3 |
| 20260507130020 | 53 | 296 | 0.9 | 2.6 | 0.00 | 0.14 | 0.14 | 76 | 1005.3 |
| 20260507125518 | 52 | 8 | 1.7 | 3.5 | 0.00 | 0.14 | 0.14 | 80 | 1005.3 |
| 20260507125315 | 57 | 294 | 1.7 | 2.6 | 0.00 | 0.63 | 0.15 | 82 | 1007.2 |
| 20260507125015 | 51 | 254 | 1.7 | 4.3 | 0.00 | 0.14 | 0.14 | 78 | 1005.3 |
| 20260507124511 | 51 | 278 | 1.7 | 2.6 | 0.00 | 0.14 | 0.14 | 80 | 1005.3 |
| 20260507124315 | 56 | 33 | 1.7 | 3.5 | 0.00 | 0.63 | 0.15 | 85 | 1007.5 |
| 20260507124216 | 56 | 316 | 0.0 | 1.7 | 0.00 | 0.63 | 0.15 | 86 | 1007.5 |
| 20260507124009 | 51 | 32 | 0.0 | 1.7 | 0.00 | 0.14 | 0.14 | 81 | 1005.6 |
| 20260507123507 | 51 | 228 | 0.0 | 1.7 | 0.00 | 0.14 | 0.14 | 83 | 1005.5 |
| 20260507123216 | 55 | 295 | 0.9 | 7.0 | 0.00 | 0.63 | 0.15 | 87 | 1007.3 |
| 20260507123003 | 50 | 337 | 0.9 | 1.7 | 0.00 | 0.14 | 0.14 | 83 | 1005.3 |
| 20260507122458 | 50 | 291 | 0.9 | 2.6 | 0.00 | 0.14 | 0.14 | 83 | 1005.5 |
| 20260507122216 | 55 | 292 | 0.0 | 1.7 | 0.00 | 0.63 | 0.15 | 89 | 1007.5 |
| 20260507121955 | 50 | 54 | 1.7 | 4.3 | 0.00 | 0.14 | 0.14 | 84 | 1005.6 |
| 20260507121450 | 49 | 52 | 1.7 | 3.5 | 0.00 | 0.14 | 0.14 | 88 | 1005.7 |
| 20260507121315 | 54 | 348 | 0.0 | 3.5 | 0.00 | 0.63 | 0.15 | 90 | 1007.9 |
| 20260507120947 | 48 | 71 | 1.7 | 1.7 | 0.00 | 0.14 | 0.14 | 90 | 1005.7 |
| 20260507120443 | 48 | 44 | 0.0 | 1.7 | 0.00 | 0.14 | 0.14 | 89 | 1005.6 |
| 20260507120415 | 54 | 337 | 0.0 | 0.9 | 0.00 | 0.63 | 0.15 | 92 | 1007.6 |
| 20260507115940 | 48 | 23 | 1.7 | 2.6 | 0.00 | 0.14 | 0.14 | 90 | 1005.7 |
| 20260507115436 | 48 | 66 | 0.0 | 2.6 | 0.00 | 0.14 | 0.14 | 92 | 1005.8 |
| 20260507115415 | 54 | 184 | 1.7 | 2.6 | 0.00 | 0.63 | 0.15 | 92 | 1007.7 |
| 20260507114932 | 47 | 175 | 0.0 | 1.7 | 0.00 | 0.14 | 0.14 | 93 | 1005.6 |
| 20260507114514 | 53 | 223 | 0.9 | 2.6 | 0.00 | 0.63 | 0.15 | 92 | 1007.5 |
| 20260507114428 | 47 | 354 | 0.9 | 1.7 | 0.00 | 0.14 | 0.14 | 93 | 1005.5 |
| 20260507113926 | 47 | 74 | 0.9 | 1.7 | 0.00 | 0.14 | 0.14 | 92 | 1005.6 |
| 20260507113518 | 52 | 314 | 0.0 | 1.7 | 0.00 | 0.63 | 0.15 | 92 | 1007.9 |
| 20260507113423 | 47 | 150 | 0.0 | 0.9 | 0.00 | 0.14 | 0.14 | 91 | 1005.8 |
| 20260507112920 | 47 | 304 | 1.7 | 1.7 | 0.00 | 0.14 | 0.14 | 92 | 1005.9 |
| 20260507112614 | 51 | 157 | 0.0 | 1.7 | 0.00 | 0.63 | 0.15 | 92 | 1007.7 |
| 20260507112417 | 46 | 236 | 0.9 | 1.7 | 0.00 | 0.14 | 0.14 | 94 | 1005.9 |
| 20260507111915 | 46 | 116 | 0.9 | 1.7 | 0.00 | 0.14 | 0.14 | 93 | 1005.6 |
| 20260507111615 | 51 | 292 | 0.0 | 0.0 | 0.00 | 0.63 | 0.15 | 92 | 1007.5 |
| 20260507111412 | 46 | 70 | 0.9 | 4.3 | 0.00 | 0.14 | 0.14 | 93 | 1005.7 |
| 20260507110908 | 46 | 284 | 0.0 | 0.9 | 0.00 | 0.14 | 0.14 | 94 | 1005.7 |
| 20260507110614 | 50 | 337 | 0.0 | 1.7 | 0.00 | 0.63 | 0.15 | 92 | 1007.2 |
| 20260507110404 | 46 | 302 | 0.0 | 0.9 | 0.00 | 0.14 | 0.14 | 94 | 1005.2 |
| 20260507105901 | 46 | 263 | 2.6 | 2.6 | 0.00 | 0.14 | 0.14 | 94 | 1005.7 |
| 20260507105614 | 50 | 292 | 0.0 | 0.0 | 0.00 | 0.63 | 0.15 | 92 | 1007.5 |
| 20260507105358 | 46 | 273 | 1.7 | 3.5 | 0.00 | 0.14 | 0.14 | 95 | 1005.6 |
| 20260507104854 | 46 | 65 | 0.0 | 0.0 | 0.00 | 0.14 | 0.14 | 96 | 1005.7 |
| 20260507104615 | 49 | 235 | 0.0 | 0.9 | 0.00 | 0.63 | 0.15 | 92 | 1007.5 |
| 20260507104351 | 46 | 44 | 0.0 | 1.7 | 0.00 | 0.14 | 0.14 | 97 | 1005.6 |
| 20260507103847 | 46 | 55 | 0.0 | 1.7 | 0.00 | 0.14 | 0.14 | 98 | 1005.3 |
| 20260507103614 | 49 | 292 | 0.0 | 0.0 | 0.00 | 0.63 | 0.15 | 92 | 1007.2 |
| 20260507103344 | 46 | 311 | 1.7 | 1.7 | 0.00 | 0.14 | 0.14 | 98 | 1005.2 |
| 20260507102840 | 46 | 202 | 0.0 | 2.6 | 0.00 | 0.14 | 0.14 | 99 | 1005.1 |
| 20260507102616 | 49 | 180 | 0.0 | 0.0 | 0.00 | 0.63 | 0.15 | 92 | 1007.2 |
| 20260507102337 | 46 | 142 | 0.9 | 1.7 | 0.00 | 0.14 | 0.14 | 99 | 1005.2 |
| 20260507101833 | 45 | 218 | 1.7 | 2.6 | 0.00 | 0.14 | 0.14 | 99 | 1005.1 |
| 20260507101615 | 49 | 180 | 0.0 | 0.0 | 0.00 | 0.63 | 0.15 | 92 | 1006.8 |
| 20260507101517 | 49 | 180 | 0.0 | 0.0 | 0.00 | 0.63 | 0.15 | 92 | 1006.8 |
| 20260507101333 | 45 | 63 | 0.9 | 1.7 | 0.00 | 0.14 | 0.14 | 99 | 1005.0 |
| 20260507100831 | 45 | 40 | 0.9 | 1.7 | 0.00 | 0.14 | 0.14 | 99 | 1005.2 |
| 20260507100615 | 48 | 180 | 0.0 | 0.0 | 0.00 | 0.63 | 0.15 | 92 | 1007.2 |
| 20260507100329 | 45 | 319 | 0.0 | 0.0 | 0.00 | 0.14 | 0.14 | 99 | 1005.2 |
| 20260507095827 | 45 | 89 | 0.0 | 0.9 | 0.00 | 0.14 | 0.14 | 99 | 1005.2 |
| 20260507095713 | 48 | 180 | 0.0 | 0.0 | 0.00 | 0.63 | 0.15 | 92 | 1007.2 |
| 20260507095323 | 45 | 89 | 0.0 | 1.7 | 0.00 | 0.14 | 0.14 | 99 | 1005.3 |
| 20260507094820 | 45 | 57 | 0.0 | 1.7 | 0.00 | 0.14 | 0.14 | 99 | 1005.2 |
| 20260507094316 | 45 | 63 | 1.7 | 1.7 | 0.00 | 0.14 | 0.14 | 99 | 1005.0 |
| 20260507093814 | 45 | 44 | 0.0 | 1.7 | 0.00 | 0.14 | 0.14 | 99 | 1005.2 |
| 20260507093714 | 48 | 180 | 0.0 | 0.0 | 0.00 | 0.63 | 0.15 | 92 | 1006.8 |
| 20260507093312 | 45 | 62 | 0.9 | 1.7 | 0.00 | 0.14 | 0.14 | 99 | 1004.8 |
| 20260507092810 | 45 | 218 | 0.9 | 0.9 | 0.00 | 0.14 | 0.14 | 99 | 1005.2 |
| 20260507092716 | 48 | 180 | 0.0 | 0.0 | 0.00 | 0.63 | 0.15 | 92 | 1006.8 |
| 20260507092307 | 45 | 109 | 0.0 | 0.9 | 0.00 | 0.14 | 0.14 | 99 | 1005.2 |
| 20260507091802 | 45 | 299 | 0.0 | 1.7 | 0.00 | 0.14 | 0.14 | 99 | 1005.2 |
| 20260507091714 | 48 | 180 | 0.0 | 0.0 | 0.01 | 0.63 | 0.15 | 92 | 1007.2 |
| 20260507091259 | 45 | 130 | 0.9 | 1.7 | 0.00 | 0.14 | 0.14 | 99 | 1005.5 |
| 20260507090759 | 45 | 257 | 0.0 | 0.9 | 0.00 | 0.14 | 0.14 | 99 | 1005.1 |
| 20260507090715 | 48 | 180 | 0.0 | 0.0 | 0.01 | 0.63 | 0.15 | 92 | 1006.5 |
| 20260507090256 | 45 | 66 | 1.7 | 1.7 | 0.00 | 0.14 | 0.14 | 99 | 1004.5 |
| 20260507085753 | 45 | 96 | 0.9 | 0.9 | 0.00 | 0.14 | 0.14 | 99 | 1004.8 |
| 20260507085715 | 48 | 180 | 0.0 | 0.0 | 0.01 | 0.63 | 0.15 | 92 | 1006.5 |
| 20260507085250 | 46 | 124 | 0.0 | 0.9 | 0.00 | 0.14 | 0.14 | 99 | 1004.8 |
| 20260507084747 | 46 | 59 | 1.7 | 1.7 | 0.00 | 0.14 | 0.14 | 99 | 1004.8 |
| 20260507084716 | 49 | 180 | 0.0 | 0.0 | 0.01 | 0.63 | 0.15 | 92 | 1006.5 |
| 20260507084243 | 46 | 73 | 0.9 | 2.6 | 0.00 | 0.14 | 0.14 | 99 | 1005.2 |
| 20260507083815 | 49 | 180 | 0.0 | 0.9 | 0.01 | 0.63 | 0.15 | 92 | 1006.8 |
| 20260507083741 | 46 | 269 | 0.0 | 0.9 | 0.00 | 0.14 | 0.14 | 99 | 1005.1 |
| 20260507083237 | 46 | 127 | 1.7 | 2.6 | 0.00 | 0.14 | 0.14 | 98 | 1004.8 |
| 20260507082815 | 49 | 270 | 0.0 | 0.0 | 0.01 | 0.63 | 0.15 | 92 | 1006.7 |
| 20260507082734 | 46 | 81 | 1.7 | 1.7 | 0.00 | 0.14 | 0.14 | 98 | 1004.7 |
| 20260507082229 | 46 | 83 | 1.7 | 1.7 | 0.00 | 0.14 | 0.14 | 99 | 1004.8 |
| 20260507081816 | 50 | 270 | 0.0 | 0.0 | 0.00 | 0.62 | 0.14 | 92 | 1006.8 |
| 20260507081726 | 46 | 35 | 0.0 | 1.7 | 0.00 | 0.14 | 0.14 | 98 | 1004.9 |
| 20260507081222 | 46 | 29 | 0.9 | 1.7 | 0.00 | 0.14 | 0.14 | 99 | 1004.7 |
| 20260507080719 | 46 | 75 | 0.9 | 0.9 | 0.00 | 0.14 | 0.14 | 98 | 1005.1 |
| 20260507080215 | 46 | 89 | 0.0 | 0.9 | 0.00 | 0.14 | 0.14 | 98 | 1005.1 |
| 20260507075816 | 50 | 270 | 0.0 | 0.0 | 0.00 | 0.62 | 0.14 | 92 | 1006.5 |
| 20260507075711 | 47 | 98 | 0.9 | 1.7 | 0.00 | 0.14 | 0.14 | 98 | 1004.9 |
| 20260507075208 | 47 | 73 | 0.9 | 1.7 | 0.00 | 0.14 | 0.14 | 98 | 1004.8 |
| 20260507074914 | 50 | 270 | 0.0 | 0.0 | 0.00 | 0.62 | 0.14 | 92 | 1006.8 |
| 20260507074704 | 47 | 63 | 1.7 | 2.6 | 0.00 | 0.14 | 0.14 | 98 | 1004.8 |
| 20260507074202 | 47 | 133 | 1.7 | 2.6 | 0.00 | 0.14 | 0.14 | 98 | 1005.1 |
| 20260507073658 | 47 | 215 | 1.7 | 1.7 | 0.00 | 0.14 | 0.14 | 98 | 1004.9 |
| 20260507073154 | 47 | 48 | 1.7 | 2.6 | 0.00 | 0.14 | 0.14 | 98 | 1004.4 |
| 20260507072914 | 51 | 337 | 1.7 | 3.5 | 0.00 | 0.62 | 0.14 | 92 | 1006.8 |
| 20260507072653 | 47 | 24 | 1.7 | 2.6 | 0.00 | 0.14 | 0.14 | 98 | 1004.7 |
| 20260507072150 | 47 | 31 | 1.7 | 1.7 | 0.00 | 0.14 | 0.14 | 98 | 1004.9 |
| 20260507071915 | 51 | 202 | 0.0 | 0.0 | 0.00 | 0.62 | 0.14 | 92 | 1006.5 |
| 20260507071647 | 47 | 326 | 0.0 | 0.0 | 0.00 | 0.14 | 0.14 | 98 | 1004.7 |
| 20260507071143 | 48 | 75 | 0.9 | 1.7 | 0.00 | 0.14 | 0.14 | 98 | 1004.3 |
| 20260507070640 | 48 | 35 | 1.7 | 1.7 | 0.00 | 0.14 | 0.14 | 98 | 1004.4 |
| 20260507070137 | 48 | 88 | 0.0 | 1.7 | 0.02 | 0.14 | 0.14 | 98 | 1004.2 |
| 20260507070015 | 51 | 302 | 0.0 | 0.9 | 0.00 | 0.62 | 0.14 | 92 | 1006.2 |
| 20260507065633 | 48 | 62 | 1.7 | 1.7 | 0.02 | 0.14 | 0.14 | 98 | 1004.4 |
| 20260507065131 | 47 | 43 | 0.9 | 1.7 | 0.00 | 0.14 | 0.14 | 98 | 1004.5 |
| 20260507065014 | 51 | 315 | 0.0 | 0.0 | 0.02 | 0.62 | 0.14 | 92 | 1006.4 |
| 20260507064628 | 47 | 42 | 0.9 | 1.7 | 0.00 | 0.14 | 0.14 | 98 | 1004.4 |
| 20260507064127 | 48 | 35 | 0.0 | 1.7 | 0.00 | 0.14 | 0.14 | 98 | 1004.4 |
| 20260507064014 | 52 | 315 | 0.0 | 0.9 | 0.03 | 0.62 | 0.14 | 92 | 1006.2 |
| 20260507063915 | 52 | 315 | 0.0 | 1.7 | 0.04 | 0.62 | 0.14 | 92 | 1006.2 |
| 20260507063624 | 48 | 328 | 0.0 | 1.7 | 0.00 | 0.14 | 0.14 | 98 | 1004.4 |
| 20260507063121 | 48 | 69 | 1.7 | 1.7 | 0.00 | 0.14 | 0.14 | 98 | 1004.3 |
| 20260507063014 | 52 | 292 | 0.0 | 1.7 | 0.07 | 0.62 | 0.14 | 92 | 1005.8 |
| 20260507062617 | 48 | 13 | 0.9 | 3.5 | 0.00 | 0.14 | 0.14 | 98 | 1004.0 |
| 20260507062115 | 48 | 93 | 1.7 | 2.6 | 0.00 | 0.14 | 0.14 | 98 | 1004.0 |
| 20260507062013 | 52 | 112 | 0.0 | 0.0 | 0.07 | 0.62 | 0.14 | 92 | 1006.2 |
| 20260507061613 | 48 | 340 | 0.0 | 1.7 | 0.00 | 0.14 | 0.14 | 98 | 1004.3 |
| 20260507061111 | 48 | 19 | 1.7 | 1.7 | 0.00 | 0.14 | 0.14 | 98 | 1004.4 |
| 20260507061015 | 52 | 237 | 0.0 | 1.7 | 0.07 | 0.62 | 0.14 | 92 | 1006.2 |
| 20260507060609 | 48 | 5 | 0.0 | 1.7 | 0.00 | 0.14 | 0.14 | 98 | 1004.1 |
| 20260507060105 | 48 | 321 | 0.0 | 1.7 | 0.05 | 0.14 | 0.14 | 98 | 1004.0 |
| 20260507060016 | 52 | 292 | 0.0 | 0.0 | 0.08 | 0.62 | 0.14 | 92 | 1006.2 |
| 20260507055600 | 49 | 44 | 0.0 | 1.7 | 0.12 | 0.14 | 0.14 | 98 | 1004.2 |
| 20260507055114 | 52 | 238 | 0.9 | 3.5 | 0.08 | 0.61 | 0.12 | 92 | 1006.0 |
| 20260507055056 | 49 | 61 | 0.0 | 1.7 | 0.12 | 0.13 | 0.13 | 98 | 1004.1 |
| 20260507054552 | 49 | 89 | 0.0 | 2.6 | 0.07 | 0.11 | 0.11 | 98 | 1004.2 |
| 20260507054114 | 52 | 202 | 0.0 | 0.0 | 0.07 | 0.59 | 0.11 | 92 | 1006.2 |
| 20260507054050 | 49 | 80 | 0.9 | 1.7 | 0.12 | 0.11 | 0.11 | 98 | 1004.1 |
| 20260507053547 | 49 | 41 | 1.7 | 7.8 | 0.17 | 0.10 | 0.10 | 98 | 1004.4 |
| 20260507053114 | 53 | 318 | 0.9 | 4.3 | 0.04 | 0.56 | 0.07 | 92 | 1006.4 |
| 20260507053046 | 49 | 159 | 0.9 | 1.7 | 0.07 | 0.09 | 0.09 | 98 | 1004.6 |
| 20260507052543 | 49 | 299 | 0.0 | 1.7 | 0.05 | 0.07 | 0.07 | 98 | 1004.6 |
| 20260507052117 | 53 | 252 | 0.0 | 0.9 | 0.05 | 0.55 | 0.07 | 92 | 1006.0 |
| 20260507052040 | 49 | 312 | 0.9 | 1.7 | 0.05 | 0.07 | 0.07 | 98 | 1004.4 |
| 20260507051538 | 49 | 358 | 1.7 | 2.6 | 0.00 | 0.07 | 0.07 | 98 | 1003.9 |
| 20260507051215 | 53 | 298 | 0.9 | 1.7 | 0.06 | 0.55 | 0.07 | 92 | 1006.0 |
| 20260507051034 | 50 | 355 | 1.7 | 3.5 | 0.00 | 0.07 | 0.07 | 98 | 1004.0 |
| 20260507050530 | 50 | 310 | 0.0 | 2.6 | 0.02 | 0.07 | 0.07 | 98 | 1003.9 |
| 20260507050216 | 54 | 290 | 0.9 | 3.5 | 0.06 | 0.54 | 0.06 | 91 | 1005.8 |
| 20260507050027 | 50 | 318 | 0.0 | 2.6 | 0.07 | 0.07 | 0.07 | 98 | 1004.0 |
| 20260507045524 | 50 | 12 | 0.9 | 2.6 | 0.05 | 0.06 | 0.06 | 98 | 1003.7 |
| 20260507045021 | 50 | 290 | 1.7 | 2.6 | 0.02 | 0.06 | 0.06 | 98 | 1003.9 |
| 20260507044518 | 50 | 315 | 1.7 | 1.7 | 0.02 | 0.06 | 0.06 | 98 | 1004.0 |
| 20260507044015 | 50 | 15 | 0.9 | 1.7 | 0.02 | 0.05 | 0.05 | 98 | 1004.0 |
| 20260507043511 | 51 | 2 | 1.7 | 4.3 | 0.05 | 0.05 | 0.05 | 97 | 1004.2 |
| 20260507043316 | 55 | 289 | 0.9 | 3.5 | 0.05 | 0.52 | 0.04 | 92 | 1006.2 |
| 20260507043008 | 51 | 14 | 1.7 | 2.6 | 0.09 | 0.05 | 0.05 | 97 | 1004.2 |
| 20260507042504 | 51 | 339 | 2.6 | 3.5 | 0.09 | 0.04 | 0.04 | 97 | 1004.1 |
| 20260507042316 | 56 | 301 | 2.6 | 5.2 | 0.04 | 0.50 | 0.02 | 92 | 1005.8 |
| 20260507041959 | 52 | 344 | 1.7 | 3.5 | 0.17 | 0.03 | 0.03 | 97 | 1003.9 |
| 20260507041457 | 54 | 300 | 0.9 | 2.6 | 0.09 | 0.02 | 0.02 | 97 | 1003.7 |
| 20260507041315 | 58 | 310 | 1.7 | 9.6 | 0.03 | 0.49 | 0.01 | 91 | 1005.7 |
| 20260507040953 | 55 | 326 | 1.7 | 2.6 | 0.02 | 0.00 | 0.00 | 98 | 1003.5 |
| 20260507040449 | 55 | 265 | 3.5 | 4.3 | 0.05 | 0.00 | 0.00 | 98 | 1003.4 |
| 20260507040414 | 58 | 309 | 0.9 | 2.6 | 0.03 | 0.48 | 0.00 | 91 | 1005.2 |
| 20260507040313 | 58 | 238 | 0.9 | 3.5 | 0.03 | 0.48 | 0.00 | 91 | 1005.2 |
| 20260507035945 | 55 | 273 | 1.7 | 2.6 | 0.05 | 0.47 | 0.47 | 98 | 1003.3 |
| 20260507035442 | 55 | 255 | 2.6 | 3.5 | 0.05 | 0.47 | 0.47 | 98 | 1003.3 |
| 20260507035411 | 58 | 292 | 0.0 | 0.0 | 0.02 | 0.47 | 0.47 | 91 | 1005.2 |
| 20260507034939 | 55 | 293 | 1.7 | 6.1 | 0.02 | 0.46 | 0.46 | 98 | 1003.0 |
| 20260507034436 | 55 | 234 | 3.5 | 3.5 | 0.00 | 0.46 | 0.46 | 98 | 1003.2 |
| 20260507034409 | 58 | 335 | 0.0 | 2.6 | 0.02 | 0.47 | 0.47 | 91 | 1005.2 |
| 20260507033934 | 55 | 233 | 3.5 | 5.2 | 0.00 | 0.46 | 0.46 | 97 | 1003.1 |
| 20260507033431 | 55 | 243 | 2.6 | 7.8 | 0.00 | 0.46 | 0.46 | 97 | 1003.0 |
| 20260507033410 | 58 | 230 | 0.0 | 1.7 | 0.02 | 0.47 | 0.47 | 91 | 1005.2 |
| 20260507032928 | 55 | 239 | 6.1 | 7.0 | 0.02 | 0.46 | 0.46 | 97 | 1003.0 |
| 20260507032425 | 55 | 244 | 2.6 | 6.1 | 0.00 | 0.45 | 0.45 | 97 | 1002.8 |
| 20260507032412 | 58 | 239 | 0.0 | 2.6 | 0.01 | 0.46 | 0.46 | 91 | 1005.1 |
| 20260507031921 | 55 | 254 | 2.6 | 6.1 | 0.05 | 0.45 | 0.45 | 97 | 1003.1 |
| 20260507031510 | 58 | 202 | 0.0 | 1.7 | 0.01 | 0.46 | 0.46 | 91 | 1004.8 |
| 20260507031418 | 55 | 247 | 2.6 | 6.1 | 0.02 | 0.45 | 0.45 | 97 | 1003.0 |
| 20260507030914 | 55 | 201 | 0.9 | 3.5 | 0.02 | 0.45 | 0.45 | 97 | 1002.8 |
| 20260507030511 | 58 | 170 | 1.7 | 3.5 | 0.00 | 0.45 | 0.45 | 91 | 1004.8 |
| 20260507030412 | 55 | 200 | 5.2 | 8.7 | 0.02 | 0.45 | 0.45 | 97 | 1002.8 |
| 20260507025909 | 55 | 302 | 1.7 | 7.0 | 0.00 | 0.44 | 0.44 | 97 | 1002.7 |
| 20260507025511 | 59 | 171 | 1.7 | 6.1 | 0.00 | 0.45 | 0.45 | 91 | 1004.8 |
| 20260507025406 | 55 | 237 | 5.2 | 7.8 | 0.00 | 0.44 | 0.44 | 97 | 1002.7 |
| 20260507024904 | 55 | 277 | 5.2 | 10.4 | 0.00 | 0.44 | 0.44 | 97 | 1002.8 |
| 20260507024513 | 59 | 347 | 0.0 | 1.7 | 0.00 | 0.45 | 0.45 | 91 | 1004.8 |
| 20260507024401 | 55 | 285 | 2.6 | 5.2 | 0.00 | 0.44 | 0.44 | 97 | 1002.9 |
| 20260507023857 | 55 | 216 | 0.9 | 11.3 | 0.00 | 0.44 | 0.44 | 97 | 1003.0 |
| 20260507023610 | 59 | 138 | 0.0 | 0.0 | 0.00 | 0.45 | 0.45 | 91 | 1005.0 |
| 20260507023353 | 55 | 251 | 3.5 | 5.2 | 0.02 | 0.44 | 0.44 | 97 | 1003.0 |
| 20260507022851 | 55 | 263 | 4.3 | 7.8 | 0.02 | 0.44 | 0.44 | 97 | 1003.0 |
| 20260507022611 | 59 | 200 | 1.7 | 2.6 | 0.00 | 0.45 | 0.45 | 91 | 1005.2 |
| 20260507022347 | 55 | 157 | 2.6 | 6.1 | 0.00 | 0.44 | 0.44 | 97 | 1003.1 |
| 20260507021843 | 55 | 272 | 1.7 | 5.2 | 0.00 | 0.44 | 0.44 | 97 | 1003.2 |
| 20260507021710 | 59 | 323 | 0.0 | 4.3 | 0.00 | 0.45 | 0.45 | 91 | 1005.2 |
| 20260507021339 | 55 | 101 | 5.2 | 9.6 | 0.00 | 0.44 | 0.44 | 97 | 1003.2 |
| 20260507020837 | 55 | 266 | 2.6 | 8.7 | 0.00 | 0.44 | 0.44 | 97 | 1003.3 |
| 20260507020712 | 59 | 226 | 0.9 | 2.6 | 0.00 | 0.45 | 0.45 | 91 | 1005.2 |
| 20260507020333 | 55 | 67 | 0.9 | 5.2 | 0.00 | 0.44 | 0.44 | 97 | 1003.4 |
| 20260507015830 | 56 | 114 | 2.6 | 7.0 | 0.00 | 0.44 | 0.44 | 97 | 1003.4 |
| 20260507015710 | 59 | 149 | 0.0 | 2.6 | 0.01 | 0.45 | 0.45 | 91 | 1005.5 |
| 20260507015612 | 59 | 238 | 1.7 | 3.5 | 0.01 | 0.45 | 0.45 | 91 | 1005.5 |
| 20260507015328 | 56 | 177 | 4.3 | 10.4 | 0.00 | 0.44 | 0.44 | 97 | 1003.5 |
| 20260507014825 | 56 | 294 | 1.7 | 6.1 | 0.00 | 0.44 | 0.44 | 97 | 1003.6 |
| 20260507014611 | 59 | 220 | 1.7 | 3.5 | 0.01 | 0.45 | 0.45 | 91 | 1005.6 |
| 20260507014321 | 56 | 198 | 7.8 | 10.4 | 0.00 | 0.44 | 0.44 | 97 | 1003.7 |
| 20260507013818 | 56 | 2 | 0.9 | 11.3 | 0.00 | 0.44 | 0.44 | 97 | 1003.7 |
| 20260507013611 | 59 | 162 | 3.5 | 6.1 | 0.01 | 0.45 | 0.45 | 91 | 1005.8 |
| 20260507013315 | 56 | 215 | 5.2 | 9.6 | 0.00 | 0.44 | 0.44 | 97 | 1004.0 |
| 20260507012813 | 56 | 283 | 3.5 | 4.3 | 0.00 | 0.44 | 0.44 | 97 | 1003.8 |
| 20260507012710 | 59 | 220 | 0.9 | 4.3 | 0.01 | 0.45 | 0.45 | 91 | 1005.8 |
| 20260507012308 | 56 | 234 | 3.5 | 4.3 | 0.00 | 0.44 | 0.44 | 97 | 1004.1 |
| 20260507011806 | 56 | 244 | 5.2 | 11.3 | 0.00 | 0.44 | 0.44 | 97 | 1004.1 |
| 20260507011713 | 58 | 215 | 1.7 | 4.3 | 0.01 | 0.45 | 0.45 | 90 | 1006.2 |
| 20260507011302 | 56 | 150 | 1.7 | 7.0 | 0.00 | 0.44 | 0.44 | 97 | 1004.1 |
| 20260507010802 | 56 | 49 | 1.7 | 9.6 | 0.00 | 0.44 | 0.44 | 97 | 1004.2 |
| 20260507010711 | 58 | 171 | 2.6 | 7.8 | 0.01 | 0.45 | 0.45 | 90 | 1006.2 |
| 20260507010258 | 56 | 231 | 5.2 | 7.0 | 0.00 | 0.44 | 0.44 | 97 | 1004.2 |
| 20260507005756 | 56 | 290 | 3.5 | 4.3 | 0.05 | 0.44 | 0.44 | 97 | 1004.4 |
| 20260507005712 | 59 | 252 | 0.0 | 1.7 | 0.00 | 0.44 | 0.44 | 91 | 1006.5 |
| 20260507005252 | 56 | 143 | 5.2 | 7.8 | 0.07 | 0.44 | 0.44 | 97 | 1004.6 |
| 20260507004748 | 56 | 246 | 4.3 | 4.3 | 0.02 | 0.43 | 0.43 | 97 | 1004.6 |
| 20260507004711 | 58 | 219 | 1.7 | 4.3 | 0.00 | 0.44 | 0.44 | 90 | 1006.5 |
| 20260507004246 | 56 | 231 | 0.9 | 5.2 | 0.00 | 0.42 | 0.42 | 97 | 1004.6 |
| 20260507003742 | 56 | 190 | 1.7 | 7.8 | 0.00 | 0.42 | 0.42 | 96 | 1004.7 |
| 20260507003713 | 59 | 213 | 1.7 | 3.5 | 0.00 | 0.44 | 0.44 | 91 | 1006.5 |
| 20260507003237 | 56 | 106 | 2.6 | 5.2 | 0.00 | 0.42 | 0.42 | 96 | 1004.7 |
| 20260507002734 | 56 | 160 | 5.2 | 7.8 | 0.00 | 0.42 | 0.42 | 96 | 1004.8 |
| 20260507002230 | 56 | 278 | 4.3 | 4.3 | 0.00 | 0.42 | 0.42 | 96 | 1004.6 |
| 20260507001811 | 58 | 135 | 0.0 | 2.6 | 0.01 | 0.44 | 0.44 | 90 | 1006.8 |
| 20260507001727 | 56 | 262 | 4.3 | 6.1 | 0.00 | 0.42 | 0.42 | 96 | 1004.7 |
| 20260507001224 | 56 | 254 | 3.5 | 9.6 | 0.00 | 0.42 | 0.42 | 96 | 1004.8 |
| 20260507000720 | 56 | 247 | 3.5 | 7.8 | 0.00 | 0.42 | 0.42 | 96 | 1004.8 |
| 20260507000216 | 56 | 280 | 1.7 | 7.0 | 0.00 | 0.42 | 0.42 | 96 | 1004.8 |
| 20260506235811 | 59 | 188 | 0.0 | 1.7 | 0.04 | 0.44 | 0.44 | 91 | 1007.2 |
| 20260506235713 | 56 | 259 | 5.2 | 10.4 | 0.00 | 0.42 | 0.42 | 96 | 1004.9 |
| 20260506235209 | 56 | 11 | 1.7 | 7.8 | 0.00 | 0.42 | 0.42 | 96 | 1005.0 |
| 20260506234712 | 59 | 15 | 1.7 | 3.5 | 0.06 | 0.44 | 0.44 | 91 | 1007.2 |
| 20260506234706 | 56 | 331 | 0.9 | 9.6 | 0.00 | 0.42 | 0.42 | 96 | 1004.9 |
| 20260506234203 | 56 | 275 | 5.2 | 10.4 | 0.00 | 0.42 | 0.42 | 96 | 1005.1 |
| 20260506233711 | 59 | 224 | 1.7 | 4.3 | 0.07 | 0.44 | 0.44 | 91 | 1007.2 |
| 20260506233700 | 56 | 264 | 4.3 | 4.3 | 0.00 | 0.42 | 0.42 | 96 | 1005.1 |
| 20260506233157 | 56 | 312 | 1.7 | 2.6 | 0.00 | 0.42 | 0.42 | 96 | 1005.1 |
| 20260506232711 | 59 | 351 | 0.0 | 2.6 | 0.08 | 0.44 | 0.44 | 91 | 1007.2 |
| 20260506232653 | 56 | 233 | 4.3 | 7.0 | 0.02 | 0.42 | 0.42 | 96 | 1005.2 |
| 20260506232148 | 56 | 250 | 6.1 | 9.6 | 0.05 | 0.42 | 0.42 | 96 | 1005.1 |
| 20260506231811 | 59 | 211 | 0.0 | 0.0 | 0.08 | 0.43 | 0.43 | 91 | 1007.2 |
| 20260506231646 | 56 | 249 | 8.7 | 11.3 | 0.07 | 0.42 | 0.42 | 96 | 1005.1 |
| 20260506231145 | 56 | 267 | 3.5 | 9.6 | 0.09 | 0.42 | 0.42 | 95 | 1005.0 |
| 20260506230909 | 59 | 164 | 0.0 | 3.5 | 0.07 | 0.41 | 0.40 | 91 | 1007.2 |
| 20260506230641 | 56 | 287 | 7.0 | 9.6 | 0.07 | 0.41 | 0.41 | 95 | 1005.1 |
| 20260506230138 | 56 | 232 | 7.8 | 12.2 | 0.05 | 0.40 | 0.40 | 96 | 1005.3 |
| 20260506225910 | 59 | 269 | 0.9 | 1.7 | 0.08 | 0.40 | 0.40 | 91 | 1007.2 |
| 20260506225634 | 56 | 177 | 2.6 | 5.2 | 0.02 | 0.40 | 0.40 | 96 | 1005.1 |
| 20260506225131 | 56 | 276 | 3.5 | 6.1 | 0.05 | 0.39 | 0.39 | 96 | 1005.2 |
| 20260506224911 | 59 | 281 | 0.9 | 3.5 | 0.08 | 0.38 | 0.38 | 91 | 1007.2 |
| 20260506224628 | 57 | 249 | 1.7 | 7.0 | 0.05 | 0.39 | 0.39 | 95 | 1005.2 |
| 20260506224124 | 56 | 226 | 1.7 | 13.0 | 0.09 | 0.39 | 0.39 | 96 | 1005.0 |
| 20260506223620 | 56 | 268 | 1.7 | 5.2 | 0.07 | 0.38 | 0.38 | 96 | 1005.1 |
| 20260506223116 | 56 | 302 | 9.6 | 9.6 | 0.05 | 0.37 | 0.37 | 96 | 1005.2 |
| 20260506222614 | 56 | 65 | 1.7 | 9.6 | 0.05 | 0.37 | 0.37 | 96 | 1005.1 |
| 20260506222110 | 56 | 269 | 4.3 | 4.3 | 0.05 | 0.36 | 0.36 | 96 | 1005.4 |
| 20260506222012 | 59 | 160 | 0.0 | 1.7 | 0.08 | 0.35 | 0.35 | 91 | 1007.5 |
| 20260506221608 | 56 | 38 | 1.7 | 7.8 | 0.05 | 0.36 | 0.36 | 96 | 1005.5 |
| 20260506221111 | 59 | 291 | 0.0 | 0.9 | 0.10 | 0.34 | 0.34 | 91 | 1007.6 |
| 20260506221106 | 56 | 202 | 4.3 | 5.2 | 0.07 | 0.35 | 0.35 | 96 | 1005.6 |
| 20260506220602 | 56 | 257 | 1.7 | 6.1 | 0.09 | 0.35 | 0.35 | 96 | 1005.5 |
| 20260506220210 | 59 | 260 | 1.7 | 3.5 | 0.09 | 0.32 | 0.32 | 91 | 1007.8 |
| 20260506220057 | 56 | 325 | 3.5 | 7.8 | 0.09 | 0.34 | 0.34 | 96 | 1005.9 |
| 20260506215554 | 56 | 229 | 3.5 | 4.3 | 0.07 | 0.33 | 0.33 | 96 | 1005.5 |
| 20260506215309 | 59 | 199 | 0.0 | 1.7 | 0.10 | 0.31 | 0.31 | 90 | 1007.9 |
| 20260506215049 | 57 | 305 | 1.7 | 4.3 | 0.05 | 0.32 | 0.32 | 96 | 1005.8 |
| 20260506214546 | 57 | 88 | 1.7 | 2.6 | 0.02 | 0.32 | 0.32 | 96 | 1005.9 |
| 20260506214312 | 59 | 181 | 0.0 | 0.0 | 0.11 | 0.30 | 0.30 | 91 | 1007.9 |
| 20260506214044 | 57 | 288 | 1.7 | 5.2 | 0.05 | 0.32 | 0.32 | 96 | 1005.9 |
| 20260506213542 | 57 | 269 | 3.5 | 8.7 | 0.05 | 0.31 | 0.31 | 96 | 1005.8 |
| 20260506213312 | 59 | 181 | 0.0 | 0.9 | 0.13 | 0.28 | 0.28 | 91 | 1007.9 |
| 20260506213039 | 56 | 194 | 0.9 | 6.1 | 0.07 | 0.31 | 0.31 | 96 | 1005.8 |
| 20260506212536 | 56 | 212 | 1.7 | 5.2 | 0.14 | 0.30 | 0.30 | 95 | 1005.8 |
| 20260506212311 | 59 | 91 | 0.9 | 2.6 | 0.14 | 0.28 | 0.28 | 91 | 1007.9 |
| 20260506212030 | 56 | 312 | 1.7 | 8.7 | 0.17 | 0.29 | 0.29 | 95 | 1005.7 |
| 20260506211526 | 56 | 173 | 3.5 | 8.7 | 0.14 | 0.28 | 0.28 | 95 | 1005.9 |
| 20260506211314 | 59 | 176 | 1.7 | 2.6 | 0.13 | 0.25 | 0.25 | 91 | 1008.2 |
| 20260506211024 | 56 | 292 | 3.5 | 7.8 | 0.09 | 0.26 | 0.26 | 95 | 1006.2 |
| 20260506210520 | 56 | 261 | 2.6 | 11.3 | 0.09 | 0.26 | 0.26 | 95 | 1006.0 |
| 20260506210311 | 59 | 195 | 2.6 | 6.1 | 0.13 | 0.23 | 0.23 | 90 | 1008.0 |
| 20260506210017 | 56 | 248 | 4.3 | 11.3 | 0.09 | 0.25 | 0.25 | 95 | 1006.0 |
| 20260506205514 | 56 | 180 | 0.9 | 6.1 | 0.09 | 0.24 | 0.24 | 95 | 1006.0 |
| 20260506205311 | 59 | 202 | 0.0 | 0.0 | 0.14 | 0.21 | 0.21 | 90 | 1008.1 |
| 20260506205009 | 56 | 321 | 4.3 | 4.3 | 0.14 | 0.23 | 0.23 | 95 | 1005.9 |
| 20260506204508 | 56 | 281 | 1.7 | 9.6 | 0.19 | 0.22 | 0.22 | 94 | 1006.0 |
| 20260506204004 | 56 | 272 | 5.2 | 12.2 | 0.17 | 0.21 | 0.21 | 94 | 1006.1 |
| 20260506203502 | 56 | 333 | 1.7 | 14.8 | 0.12 | 0.19 | 0.19 | 94 | 1006.0 |
| 20260506203311 | 59 | 230 | 0.9 | 4.3 | 0.14 | 0.16 | 0.16 | 90 | 1008.3 |
| 20260506202958 | 56 | 158 | 5.2 | 7.8 | 0.19 | 0.18 | 0.18 | 94 | 1006.1 |
| 20260506202456 | 56 | 76 | 1.7 | 6.1 | 0.21 | 0.17 | 0.17 | 93 | 1006.5 |
| 20260506202310 | 59 | 145 | 0.0 | 1.7 | 0.13 | 0.14 | 0.14 | 90 | 1008.6 |
| 20260506201952 | 57 | 260 | 2.6 | 8.7 | 0.14 | 0.15 | 0.15 | 93 | 1006.3 |
| 20260506201450 | 57 | 155 | 3.5 | 9.6 | 0.12 | 0.14 | 0.14 | 93 | 1006.2 |
| 20260506201312 | 60 | 192 | 0.0 | 1.7 | 0.12 | 0.12 | 0.11 | 90 | 1008.2 |
| 20260506200946 | 57 | 313 | 7.8 | 8.7 | 0.14 | 0.13 | 0.13 | 93 | 1006.2 |
| 20260506200442 | 57 | 135 | 2.6 | 4.3 | 0.14 | 0.12 | 0.12 | 92 | 1006.0 |
| 20260506200312 | 60 | 169 | 0.9 | 2.6 | 0.10 | 0.10 | 0.10 | 89 | 1007.9 |
| 20260506195939 | 57 | 243 | 3.5 | 4.3 | 0.12 | 0.10 | 0.10 | 92 | 1005.8 |
| 20260506195436 | 57 | 103 | 1.7 | 4.3 | 0.14 | 0.09 | 0.09 | 91 | 1006.0 |
| 20260506195411 | 60 | 143 | 1.7 | 5.2 | 0.07 | 0.07 | 0.07 | 88 | 1008.0 |
| 20260506194932 | 57 | 134 | 2.6 | 5.2 | 0.12 | 0.08 | 0.08 | 91 | 1006.0 |
| 20260506194430 | 58 | 327 | 1.7 | 5.2 | 0.14 | 0.07 | 0.07 | 90 | 1006.1 |
| 20260506194409 | 61 | 215 | 0.9 | 2.6 | 0.05 | 0.05 | 0.05 | 87 | 1008.1 |
| 20260506194313 | 61 | 282 | 0.9 | 3.5 | 0.05 | 0.05 | 0.05 | 87 | 1008.0 |
| 20260506193927 | 58 | 286 | 0.9 | 7.0 | 0.12 | 0.06 | 0.06 | 90 | 1006.0 |
| 20260506193424 | 58 | 291 | 1.7 | 6.1 | 0.14 | 0.05 | 0.05 | 88 | 1006.0 |
| 20260506192920 | 59 | 297 | 2.6 | 3.5 | 0.12 | 0.04 | 0.04 | 88 | 1006.3 |
| 20260506192417 | 59 | 286 | 2.6 | 4.3 | 0.12 | 0.02 | 0.02 | 86 | 1006.2 |
| 20260506191914 | 60 | 287 | 1.7 | 8.7 | 0.09 | 0.02 | 0.02 | 84 | 1006.5 |
| 20260506191410 | 60 | 255 | 2.6 | 5.2 | 0.02 | 0.00 | 0.00 | 82 | 1006.7 |
| 20260506190908 | 61 | 224 | 4.3 | 10.4 | 0.00 | 0.00 | 0.00 | 79 | 1006.5 |
| 20260506190510 | 65 | 135 | 0.0 | 0.0 | 0.00 | 0.00 | 0.00 | 75 | 1008.8 |
| 20260506190404 | 62 | 197 | 3.5 | 13.0 | 0.00 | 0.00 | 0.00 | 76 | 1006.5 |
| 20260506185901 | 63 | 149 | 1.7 | 7.0 | 0.00 | 0.00 | 0.00 | 75 | 1006.5 |
| 20260506185511 | 66 | 112 | 0.0 | 0.0 | 0.00 | 0.00 | 0.00 | 76 | 1008.6 |
| 20260506185358 | 63 | 218 | 1.7 | 7.8 | 0.00 | 0.00 | 0.00 | 74 | 1006.5 |
| 20260506184855 | 63 | 254 | 3.5 | 9.6 | 0.00 | 0.00 | 0.00 | 74 | 1006.2 |
| 20260506184511 | 66 | 157 | 0.0 | 0.0 | 0.00 | 0.00 | 0.00 | 76 | 1008.3 |
| 20260506184352 | 63 | 301 | 3.5 | 4.3 | 0.00 | 0.00 | 0.00 | 74 | 1006.3 |
| 20260506183849 | 63 | 160 | 3.5 | 5.2 | 0.00 | 0.00 | 0.00 | 74 | 1006.4 |
| 20260506183511 | 66 | 246 | 0.9 | 3.5 | 0.00 | 0.00 | 0.00 | 76 | 1008.6 |
| 20260506183344 | 63 | 180 | 3.5 | 5.2 | 0.00 | 0.00 | 0.00 | 74 | 1006.6 |
| 20260506182842 | 63 | 244 | 1.7 | 6.1 | 0.00 | 0.00 | 0.00 | 74 | 1006.5 |
| 20260506182512 | 66 | 232 | 0.9 | 4.3 | 0.00 | 0.00 | 0.00 | 76 | 1008.6 |
| 20260506182339 | 63 | 150 | 1.7 | 7.0 | 0.00 | 0.00 | 0.00 | 74 | 1006.6 |
| 20260506181836 | 63 | 150 | 5.2 | 6.1 | 0.00 | 0.00 | 0.00 | 74 | 1006.6 |
| 20260506181334 | 63 | 170 | 4.3 | 7.0 | 0.00 | 0.00 | 0.00 | 74 | 1006.7 |
| 20260506180831 | 63 | 244 | 1.7 | 5.2 | 0.00 | 0.00 | 0.00 | 74 | 1006.8 |
| 20260506180511 | 66 | 208 | 0.9 | 3.5 | 0.00 | 0.00 | 0.00 | 74 | 1008.9 |
| 20260506180327 | 63 | 263 | 5.2 | 6.1 | 0.00 | 0.00 | 0.00 | 74 | 1006.8 |
| 20260506175823 | 63 | 238 | 1.7 | 7.0 | 0.00 | 0.00 | 0.00 | 74 | 1006.8 |
| 20260506175512 | 67 | 114 | 0.0 | 1.7 | 0.00 | 0.00 | 0.00 | 74 | 1008.9 |
| 20260506175321 | 64 | 112 | 1.7 | 2.6 | 0.00 | 0.00 | 0.00 | 73 | 1007.1 |
| 20260506174818 | 64 | 59 | 1.7 | 8.7 | 0.00 | 0.00 | 0.00 | 72 | 1007.0 |
| 20260506174609 | 67 | 130 | 0.9 | 2.6 | 0.00 | 0.00 | 0.00 | 74 | 1008.9 |
| 20260506174315 | 64 | 305 | 3.5 | 8.7 | 0.00 | 0.00 | 0.00 | 72 | 1007.1 |
| 20260506173812 | 64 | 164 | 1.7 | 7.8 | 0.00 | 0.00 | 0.00 | 72 | 1007.0 |
| 20260506173512 | 67 | 209 | 0.0 | 2.6 | 0.00 | 0.00 | 0.00 | 74 | 1009.4 |
| 20260506173309 | 64 | 150 | 1.7 | 5.2 | 0.00 | 0.00 | 0.00 | 72 | 1007.4 |
| 20260506172806 | 64 | 253 | 1.7 | 5.2 | 0.00 | 0.00 | 0.00 | 72 | 1007.4 |
| 20260506172511 | 67 | 163 | 0.9 | 2.6 | 0.00 | 0.00 | 0.00 | 74 | 1009.6 |
| 20260506172306 | 64 | 319 | 1.7 | 7.0 | 0.00 | 0.00 | 0.00 | 72 | 1007.4 |
| 20260506171800 | 64 | 305 | 1.7 | 4.3 | 0.00 | 0.00 | 0.00 | 72 | 1007.5 |
| 20260506171513 | 66 | 129 | 0.0 | 2.6 | 0.00 | 0.00 | 0.00 | 73 | 1009.6 |
| 20260506171257 | 64 | 176 | 1.7 | 4.3 | 0.00 | 0.00 | 0.00 | 73 | 1007.7 |
| 20260506170755 | 64 | 147 | 2.6 | 6.1 | 0.00 | 0.00 | 0.00 | 72 | 1007.6 |
| 20260506170512 | 67 | 97 | 0.0 | 1.7 | 0.00 | 0.00 | 0.00 | 74 | 1009.8 |
| 20260506170251 | 64 | 120 | 6.1 | 7.0 | 0.00 | 0.00 | 0.00 | 72 | 1007.9 |
| 20260506165749 | 64 | 313 | 2.6 | 8.7 | 0.00 | 0.00 | 0.00 | 72 | 1007.6 |
| 20260506165511 | 67 | 112 | 0.9 | 1.7 | 0.00 | 0.00 | 0.00 | 75 | 1009.6 |
| 20260506165247 | 65 | 271 | 4.3 | 7.8 | 0.00 | 0.00 | 0.00 | 71 | 1007.7 |
| 20260506164743 | 65 | 217 | 2.6 | 3.5 | 0.00 | 0.00 | 0.00 | 72 | 1007.8 |
| 20260506164510 | 66 | 100 | 0.9 | 2.6 | 0.00 | 0.00 | 0.00 | 75 | 1009.9 |
| 20260506164240 | 64 | 113 | 1.7 | 4.3 | 0.00 | 0.00 | 0.00 | 72 | 1007.9 |
| 20260506163737 | 64 | 225 | 3.5 | 5.2 | 0.00 | 0.00 | 0.00 | 72 | 1008.0 |
| 20260506163512 | 66 | 124 | 0.0 | 2.6 | 0.00 | 0.00 | 0.00 | 75 | 1009.9 |
| 20260506163232 | 64 | 253 | 3.5 | 7.0 | 0.00 | 0.00 | 0.00 | 73 | 1008.1 |
| 20260506162728 | 64 | 244 | 1.7 | 3.5 | 0.00 | 0.00 | 0.00 | 73 | 1008.0 |
| 20260506162511 | 66 | 292 | 0.0 | 1.7 | 0.00 | 0.00 | 0.00 | 76 | 1010.0 |
| 20260506162226 | 64 | 28 | 1.7 | 7.8 | 0.00 | 0.00 | 0.00 | 73 | 1008.0 |
| 20260506161723 | 64 | 86 | 2.6 | 6.1 | 0.00 | 0.00 | 0.00 | 74 | 1008.1 |
| 20260506161511 | 66 | 112 | 0.0 | 1.7 | 0.00 | 0.00 | 0.00 | 76 | 1010.3 |
| 20260506161220 | 63 | 265 | 1.7 | 6.1 | 0.00 | 0.00 | 0.00 | 74 | 1008.1 |
| 20260506160718 | 63 | 171 | 1.7 | 3.5 | 0.00 | 0.00 | 0.00 | 74 | 1008.3 |
| 20260506160214 | 63 | 115 | 3.5 | 4.3 | 0.00 | 0.00 | 0.00 | 74 | 1008.5 |
| 20260506155713 | 63 | 273 | 1.7 | 7.8 | 0.00 | 0.00 | 0.00 | 74 | 1008.3 |
| 20260506155512 | 65 | 90 | 0.0 | 0.0 | 0.00 | 0.00 | 0.00 | 77 | 1010.4 |
| 20260506155210 | 63 | 262 | 0.9 | 3.5 | 0.00 | 0.00 | 0.00 | 74 | 1008.6 |
| 20260506154611 | 64 | 76 | 0.9 | 2.6 | 0.00 | 0.00 | 0.00 | 77 | 1010.6 |
| 20260506153610 | 64 | 22 | 0.0 | 0.0 | 0.00 | 0.00 | 0.00 | 77 | 1010.6 |
| 20260506153311 | 62 | 14 | 1.7 | 2.6 | 0.00 | 0.00 | 0.00 | 74 | 1008.4 |
| 20260506152808 | 61 | 162 | 0.0 | 5.2 | 0.00 | 0.00 | 0.00 | 75 | 1008.4 |
| 20260506152306 | 62 | 75 | 1.7 | 3.5 | 0.00 | 0.00 | 0.00 | 74 | 1008.1 |
| 20260506151804 | 62 | 331 | 1.7 | 5.2 | 0.00 | 0.00 | 0.00 | 74 | 1007.9 |
| 20260506151301 | 62 | 42 | 0.9 | 3.5 | 0.00 | 0.00 | 0.00 | 74 | 1008.1 |
| 20260506150757 | 62 | 157 | 4.3 | 5.2 | 0.00 | 0.00 | 0.00 | 73 | 1008.0 |
| 20260506150612 | 64 | 231 | 0.0 | 2.6 | 0.00 | 0.00 | 0.00 | 76 | 1010.3 |
| 20260506150303 | 62 | 180 | 0.0 | 3.5 | 0.00 | 0.00 | 0.00 | 74 | 1008.2 |
| 20260506145751 | 62 | 126 | 3.5 | 5.2 | 0.00 | 0.00 | 0.00 | 73 | 1008.2 |
| 20260506145611 | 64 | 112 | 0.0 | 2.6 | 0.00 | 0.00 | 0.00 | 76 | 1010.6 |
| 20260506145248 | 61 | 123 | 1.7 | 4.3 | 0.00 | 0.00 | 0.00 | 74 | 1008.2 |
| 20260506144745 | 61 | 64 | 1.7 | 7.0 | 0.00 | 0.00 | 0.00 | 74 | 1008.8 |
| 20260506144710 | 64 | 40 | 0.0 | 0.9 | 0.00 | 0.00 | 0.00 | 76 | 1010.7 |
| 20260506144242 | 61 | 60 | 0.9 | 2.6 | 0.00 | 0.00 | 0.00 | 74 | 1008.7 |
| 20260506143740 | 61 | 109 | 1.7 | 6.1 | 0.00 | 0.00 | 0.00 | 73 | 1008.8 |
| 20260506143712 | 64 | 28 | 0.9 | 2.6 | 0.00 | 0.00 | 0.00 | 76 | 1010.9 |
| 20260506143237 | 62 | 180 | 1.7 | 5.2 | 0.00 | 0.00 | 0.00 | 72 | 1008.7 |
| 20260506142735 | 62 | 84 | 1.7 | 7.0 | 0.00 | 0.00 | 0.00 | 72 | 1008.8 |
| 20260506142233 | 62 | 302 | 1.7 | 3.5 | 0.00 | 0.00 | 0.00 | 72 | 1008.8 |
| 20260506141731 | 62 | 180 | 2.6 | 5.2 | 0.00 | 0.00 | 0.00 | 72 | 1009.0 |
| 20260506141712 | 64 | 96 | 0.0 | 1.7 | 0.00 | 0.00 | 0.00 | 76 | 1011.3 |
| 20260506141611 | 64 | 112 | 0.0 | 0.9 | 0.00 | 0.00 | 0.00 | 76 | 1011.3 |
| 20260506141229 | 62 | 143 | 1.7 | 1.7 | 0.00 | 0.00 | 0.00 | 73 | 1009.0 |
| 20260506140726 | 62 | 105 | 1.7 | 3.5 | 0.00 | 0.00 | 0.00 | 72 | 1008.8 |
| 20260506140610 | 63 | 45 | 0.9 | 3.5 | 0.00 | 0.00 | 0.00 | 76 | 1011.0 |
| 20260506140223 | 62 | 293 | 1.7 | 3.5 | 0.00 | 0.00 | 0.00 | 72 | 1009.0 |
| 20260506135720 | 61 | 309 | 0.0 | 1.7 | 0.00 | 0.00 | 0.00 | 73 | 1009.0 |
| 20260506135709 | 63 | 22 | 0.0 | 1.7 | 0.00 | 0.00 | 0.00 | 76 | 1010.9 |
| 20260506135216 | 61 | 317 | 0.0 | 3.5 | 0.00 | 0.00 | 0.00 | 73 | 1008.8 |